EHI
0 0 0 0 1 1 1 0 0 0 0 0 1 3 5 5 5 7 13 19 25 32 40 46 47 44 45 50 51 49 49 48 47 45 41 38 34 30 29 32 32 28 21 18
0 0 0 0 0 0 0 0 0 0 0 0 1 4 7 7 5 7 12 20 28 36 42 46 46 43 46 51 51 49 47 46 44 44 42 38 34 30 28 31 32 27 21 18
0 0 0 0 0 0 0 0 0 0 0 0 1 4 7 9 8 9 15 23 31 39 44 45 42 41 45 49 49 46 45 43 42 43 41 38 36 32 30 32 33 29 23 19
0 0 0 0 0 0 0 0 0 0 0 0 0 3 7 10 11 14 20 27 34 41 45 44 40 39 41 44 44 45 44 43 42 43 40 37 36 35 34 35 35 32 27 23
0 0 0 0 0 0 0 0 0 0 0 0 0 2 7 11 14 18 23 29 36 42 45 44 41 38 36 36 38 42 44 44 44 41 37 34 34 36 37 37 37 34 30 27
0 0 0 0 0 0 0 0 0 0 0 0 0 2 6 9 13 18 22 28 35 39 39 39 38 35 30 29 32 37 42 44 43 41 36 33 32 36 38 38 36 32 29 28
0 0 0 0 0 0 0 0 0 0 0 0 0 2 6 9 12 17 22 26 31 33 33 33 33 31 28 26 28 33 38 41 42 40 38 34 32 33 34 33 30 27 26 27
0 0 0 0 0 0 0 0 0 0 0 0 1 3 8 11 13 17 20 24 28 29 28 28 31 31 27 25 27 32 36 39 40 39 37 35 33 32 31 28 25 24 25 25
0 0 0 0 0 0 0 0 0 0 0 0 1 4 10 11 11 13 17 21 25 26 24 26 30 31 29 27 29 33 36 37 36 34 34 33 34 34 31 26 23 24 24 24
0 0 0 0 0 0 0 0 0 0 0 0 1 4 9 12 11 12 14 17 20 23 23 24 27 29 28 28 30 33 33 31 28 29 30 32 34 34 31 26 22 23 24 24
0 0 0 0 0 0 0 0 0 0 0 0 0 2 6 12 14 13 12 13 16 21 23 24 25 26 26 26 28 29 28 24 23 25 27 30 33 32 30 26 23 22 24 25
0 0 0 0 0 0 0 0 0 0 0 0 0 2 5 9 11 10 9 10 14 18 21 24 24 24 23 23 26 27 24 20 19 21 24 29 31 30 29 26 24 23 23 22
0 0 0 0 0 0 0 0 0 0 0 0 0 2 6 8 8 8 8 10 13 15 18 21 22 21 21 23 27 28 24 20 19 19 21 25 29 28 26 25 24 23 20 18
0 0 0 0 0 0 0 0 0 0 0 0 0 3 6 9 9 8 7 9 11 13 16 18 19 19 20 22 26 26 23 20 20 20 21 23 25 27 25 23 22 21 18 16
0 0 0 0 0 0 0 0 0 0 1 1 1 3 6 10 11 8 7 9 11 12 14 15 17 19 18 20 22 20 17 17 19 20 21 21 24 27 26 22 20 18 16 15
1 1 0 0 0 0 0 0 0 1 2 2 3 4 7 10 11 9 10 11 12 13 14 15 17 19 18 17 17 14 12 12 15 17 18 19 21 24 25 22 18 15 14 15
2 2 1 0 0 0 1 1 0 1 2 2 3 5 8 9 9 10 11 12 13 14 16 17 17 17 16 14 12 9 7 7 9 11 13 16 17 19 22 22 19 16 15 17
3 3 1 0 0 0 1 1 0 0 1 1 1 3 5 8 8 8 9 11 12 14 19 22 19 16 14 12 9 6 5 5 6 7 10 13 15 15 18 22 23 20 19 18
4 4 2 0 0 0 1 1 0 0 0 0 0 1 3 6 6 6 8 10 11 14 21 23 19 15 14 15 13 9 7 6 6 6 9 12 14 15 17 22 24 23 21 18
3 3 2 0 0 0 0 0 0 0 1 2 2 2 4 6 6 7 9 10 11 13 18 18 16 15 17 19 19 15 12 9 7 7 9 12 15 16 18 21 23 23 20 18
1 1 1 0 0 0 0 0 0 2 3 3 3 4 6 8 10 10 11 13 12 11 11 12 14 17 20 22 20 18 15 11 9 9 10 12 15 16 18 21 21 20 19 18
0 0 0 0 0 1 1 1 2 5 5 3 2 4 7 9 11 12 13 15 14 10 7 8 12 16 19 20 18 16 15 13 10 10 12 14 14 14 18 21 21 20 19 19
1 1 1 1 1 1 1 2 4 5 4 2 1 3 5 8 10 12 13 13 12 9 8 9 10 13 15 17 16 14 14 15 13 12 14 15 15 15 19 22 22 21 20 19
2 2 2 2 1 1 1 2 3 4 3 2 3 3 4 7 11 13 12 10 8 8 9 9 10 10 12 14 15 15 14 15 15 15 16 16 16 17 20 21 19 18 17 16
1 1 1 1 1 0 0 1 2 2 3 4 5 4 5 8 11 12 10 7 5 6 8 9 9 10 12 15 15 15 15 16 16 16 17 17 17 17 17 16 14 12 11 11
0 0 0 1 1 1 1 0 1 1 2 5 6 6 6 8 9 9 8 6 4 4 6 8 8 9 12 15 15 15 16 16 16 17 17 17 16 15 15 13 10 8 7 5
Wind_Speed
12 12 12 13 14 14 14 14 11 8 5 7 9 8 8 8 8 8 9 9 8 8 9 8 7 7 7 6 6 5 4 3 2 2 2 1 1 1 1 2 3 2 2 2
12 15 14 13 11 11 14 15 12 8 6 7 8 9 8 9 9 7 7 8 8 8 8 8 8 6 6 6 5 5 4 3 2 2 1 1 1 1 2 2 2 2 2 2
15 11 10 11 11 11 13 12 11 10 9 8 9 11 10 9 8 8 7 7 8 9 9 8 8 7 7 6 5 4 4 3 2 2 1 1 1 1 1 2 2 2 2 2
13 12 10 11 12 12 11 10 10 11 10 9 9 9 9 9 9 8 7 7 7 7 9 8 7 6 5 5 5 5 4 4 2 1 1 2 2 1 1 1 2 3 2 2
11 11 11 12 11 11 11 9 9 11 12 12 10 10 7 6 8 8 7 6 6 6 7 8 7 6 5 5 4 5 5 4 3 1 1 1 1 1 1 1 2 3 2 2
14 11 11 11 9 9 9 10 11 11 10 11 10 10 6 4 6 7 6 6 6 7 7 7 7 6 5 4 4 3 4 4 3 2 1 1 1 0 1 1 2 2 2 2
14 13 10 7 9 9 10 10 8 9 9 10 7 7 4 0 2 5 7 7 7 7 7 7 6 6 5 4 4 4 2 3 3 3 2 1 1 1 0 1 1 1 2 2
11 10 10 8 9 8 10 12 9 9 9 7 5 5 2 5 6 7 8 8 7 7 6 6 6 5 5 4 3 4 3 2 2 2 2 1 1 1 0 1 1 1 1 1
8 7 4 7 8 11 10 11 12 12 13 11 5 4 5 6 7 8 7 8 7 6 6 6 6 5 4 4 3 3 3 2 1 1 1 2 1 1 1 0 2 1 1 2
9 8 8 6 8 11 11 10 7 7 8 9 7 2 2 5 5 7 6 6 6 6 5 6 6 5 4 3 4 4 3 2 1 0 1 1 1 1 1 1 1 1 0 1
8 8 9 8 9 9 9 10 8 7 8 7 7 2 3 4 4 4 4 5 5 5 5 6 5 4 4 3 3 3 2 2 1 1 0 0 1 1 1 1 1 1 1 1
5 6 9 10 7 8 10 9 8 7 8 8 7 2 4 4 5 3 3 4 3 4 4 5 5 4 3 3 3 2 2 1 1 1 0 1 1 1 1 1 1 1 2 2
4 4 8 9 6 4 6 7 8 8 8 8 8 2 4 3 4 4 4 3 4 4 4 4 4 3 3 2 2 2 1 1 1 0 1 0 1 1 1 2 2 2 2 2
4 5 9 10 7 6 7 9 10 9 7 8 7 3 3 1 2 3 3 3 3 4 4 4 3 2 3 2 2 2 2 1 1 1 0 1 1 1 1 1 2 2 2 2
3 7 10 12 11 9 9 10 11 9 8 9 7 5 1 2 2 2 3 4 2 2 3 3 2 1 2 2 1 1 1 1 1 1 1 1 1 2 2 2 2 2 2 3
3 7 10 12 12 11 11 10 11 9 8 8 7 5 2 2 3 2 2 2 2 2 2 2 2 1 1 1 0 0 1 1 1 1 2 1 1 2 2 2 2 2 3 3
5 6 9 11 12 13 11 8 8 7 6 7 7 4 2 3 2 2 2 1 1 1 1 2 2 1 1 0 1 1 1 1 2 2 2 1 1 2 2 3 2 2 3 2
6 7 7 10 11 12 5 5 7 6 5 5 4 3 2 2 2 3 3 1 1 1 1 1 1 1 1 1 1 1 2 2 2 2 3 2 2 2 2 2 2 2 2 2
5 5 7 8 11 8 5 4 5 5 4 3 3 2 3 2 0 2 3 2 1 0 1 1 1 1 1 1 1 1 2 2 2 3 3 3 3 2 2 2 3 3 3 3
5 5 7 9 10 8 3 2 3 5 4 2 3 2 2 2 3 1 3 3 2 2 1 1 1 1 1 1 1 1 2 2 2 3 3 3 3 2 2 2 2 2 3 3
6 7 9 10 9 5 3 4 4 5 2 5 5 5 4 3 3 2 3 3 2 2 1 1 1 1 1 0 1 1 1 2 3 3 2 2 2 2 2 2 2 2 3 3
6 6 7 7 8 4 4 5 3 2 3 3 4 3 3 3 3 3 2 2 2 1 1 1 1 1 1 1 1 1 1 2 2 3 2 2 2 3 2 2 2 2 3 4
5 3 2 2 2 1 3 3 3 2 2 2 2 2 1 1 1 2 2 2 1 1 0 1 1 1 1 1 1 1 1 2 2 2 2 2 1 1 1 2 2 2 2 2
3 2 3 3 2 1 0 0 0 2 2 1 1 1 2 1 1 2 1 1 0 0 0 0 1 1 0 1 0 0 1 2 2 2 1 1 1 1 1 1 1 1 1 1
6 5 4 4 3 4 2 3 3 2 2 2 2 1 1 1 1 1 1 1 1 1 1 1 0 1 1 0 1 1 2 2 2 2 2 2 2 1 1 1 0 1 1 1
5 4 4 3 3 3 4 3 4 3 2 2 2 2 2 0 1 1 0 0 1 1 1 1 0 0 0 1 1 1 1 2 1 2 2 2 2 1 1 1 1 1 1 1
Wind_Direction
221 230 238 240 237 250 268 278 276 266 250 236 234 227 202 215 215 206 193 180 182 175 154 148 145 142 135 127 129 136 139 134 146 146 178 183 180 182 163 141 126 140 164 181
233 232 245 254 252 255 265 271 277 273 253 250 255 253 225 211 211 216 205 183 181 170 154 148 146 148 140 137 138 140 136 140 149 141 170 194 181 199 161 134 140 147 163 186
239 243 236 246 255 254 257 264 275 277 270 250 247 251 242 221 206 203 202 187 179 171 158 155 157 155 146 140 139 137 134 139 148 154 162 197 165 188 159 149 147 147 155 169
245 250 247 245 249 255 264 265 264 267 266 259 245 257 231 219 202 195 189 180 178 166 153 150 149 149 144 145 140 135 137 139 147 170 183 200 172 188 203 162 150 152 162 168
253 251 251 249 251 253 262 268 265 265 264 265 258 260 245 203 204 188 181 173 160 146 144 141 137 139 140 140 133 139 138 139 151 175 173 209 198 196 166 152 153 155 159 167
258 257 252 256 263 262 269 270 264 257 258 257 257 261 263 237 202 180 160 143 128 129 127 126 128 130 129 130 127 127 141 147 159 169 184 199 245 260 141 148 169 165 159 168
244 244 241 247 256 251 251 255 255 249 242 247 246 249 240 161 107 148 150 136 131 128 127 128 131 136 134 136 138 132 132 156 164 169 171 184 227 230 196 216 199 180 178 176
254 238 223 222 242 252 245 252 256 266 272 260 236 240 170 122 107 110 123 123 125 125 127 131 127 125 130 138 136 134 147 147 159 172 172 179 196 213 221 302 273 206 200 190
283 281 245 227 241 252 256 253 265 267 274 278 250 196 145 134 122 116 123 129 129 129 132 133 125 127 127 130 130 119 113 119 128 177 200 203 197 182 189 232 286 264 198 178
276 286 273 253 253 244 260 274 279 276 282 281 280 255 165 137 140 133 139 141 144 146 148 139 135 138 132 129 128 126 125 129 130 173 246 210 193 205 193 197 177 289 283 175
264 272 264 245 244 262 253 255 266 276 273 281 284 278 99 111 108 120 141 142 149 154 146 136 129 131 126 133 126 124 126 136 153 163 237 279 205 216 223 231 204 205 224 210
259 274 275 265 251 256 271 267 261 269 275 277 280 293 82 104 119 122 108 120 127 127 135 134 129 127 126 121 115 116 105 135 152 153 162 241 217 212 233 244 241 217 214 218
285 275 274 262 245 249 269 286 282 269 269 271 274 224 111 113 111 102 96 111 131 129 124 116 112 117 114 100 82 70 59 48 62 105 168 192 207 210 240 255 253 230 227 231
280 263 269 279 292 278 275 274 270 271 273 274 274 247 179 164 109 111 112 115 130 137 123 113 110 108 102 83 58 21 359 14 351 337 238 202 216 231 248 255 253 244 234 232
268 262 267 273 277 269 261 267 268 262 263 274 282 284 215 165 113 113 109 107 97 132 133 133 126 100 107 94 79 75 315 333 320 313 284 251 234 231 222 226 238 233 231 229
234 278 283 276 272 270 267 265 266 268 272 275 278 290 353 64 90 90 93 127 163 181 176 151 125 115 103 89 299 229 270 317 317 292 278 270 255 247 224 216 218 222 220 221
245 250 266 274 276 274 264 272 276 276 288 297 297 314 3 7 36 66 73 116 182 188 193 158 149 171 190 212 254 269 274 290 290 287 276 264 240 247 243 232 224 221 220 215
248 262 261 268 274 265 274 296 296 284 285 300 313 333 337 357 24 69 64 54 135 194 173 149 177 183 216 251 250 266 278 281 281 280 284 276 257 246 244 233 223 220 221 223
213 245 263 265 266 262 260 288 307 296 288 314 312 316 324 0 335 98 88 72 63 125 133 164 193 202 228 251 258 262 266 273 276 274 279 277 267 257 242 226 219 213 211 221
218 215 244 259 267 268 270 310 326 293 255 5 358 348 348 328 280 20 56 56 58 65 66 126 161 205 216 242 239 264 285 285 283 280 280 278 274 271 254 233 221 218 215 219
236 229 241 258 265 266 331 327 292 272 345 29 25 26 14 4 14 65 70 51 56 83 84 73 122 132 158 195 184 230 282 292 293 296 282 280 272 254 242 224 220 218 213 216
246 248 242 253 259 260 360 336 343 29 20 17 26 32 22 39 67 85 86 68 53 82 96 82 100 91 82 127 173 214 281 303 311 308 298 284 280 268 236 180 208 218 220 214
244 260 270 247 241 47 355 10 33 12 337 10 17 32 22 339 112 109 86 70 30 11 67 103 105 101 97 114 157 202 295 299 290 301 312 298 281 275 253 200 203 211 218 224
277 311 269 272 250 241 89 29 334 348 347 348 342 303 250 230 153 139 126 120 254 275 323 130 155 168 151 110 78 303 264 274 280 288 297 284 264 247 246 196 207 215 227 239
310 306 285 266 274 299 320 344 339 352 7 353 333 300 269 186 165 180 169 174 196 235 233 232 209 194 200 171 272 273 278 276 279 269 277 273 262 257 224 202 167 184 163 236
287 301 306 313 352 318 312 314 325 322 323 316 312 326 352 35 166 190 165 172 192 205 193 156 221 205 211 223 259 299 303 295 289 280 267 260 254 227 221 203 146 61 165 194